FW7273 Weather Reports


time (UTC)temp
F
wind
direction
speed
knots
gust
knots
rain 1hr
in
rain 24hr
in
rain mn
in
humidity
%
barometer
mb
20260505125027 50 148 1.7 4.3 0.15 0.39 0.31 86 1012.4
20260505124029 50 146 8.7 12.2 0.15 0.39 0.31 86 1012.1
20260505123031 51 149 7.0 8.7 0.08 0.32 0.24 85 1013.4
20260505122015 52 113 6.1 7.0 0.03 0.26 0.18 82 1013.0
20260505121038 52 126 6.1 7.8 0.01 0.24 0.16 83 1012.4
20260505120020 52 153 4.3 7.0 0.01 0.24 0.16 82 1011.9
20260505115022 53 179 4.3 4.3 0.02 0.24 0.16 81 1011.4
20260505114024 53 181 5.2 7.0 0.02 0.24 0.16 83 1011.3
20260505113027 53 163 6.1 7.8 0.02 0.24 0.16 84 1011.1
20260505112023 53 157 6.1 7.8 0.01 0.23 0.15 84 1011.1
20260505111019 54 168 5.2 6.1 0.01 0.23 0.15 83 1011.1
20260505102044 55 186 3.5 6.1 0.13 0.22 0.14 81 1010.8
20260505101026 56 198 8.7 11.3 0.13 0.22 0.14 79 1010.6
20260505100028 58 120 7.0 10.4 0.12 0.21 0.13 88 1010.5
20260505095032 60 135 4.3 6.1 0.09 0.18 0.10 90 1010.8
20260505094032 60 139 3.5 4.3 0.02 0.11 0.03 88 1009.8
20260505093016 60 180 3.5 4.3 0.02 0.11 0.03 88 1010.1
20260505092019 61 135 1.7 3.5 0.00 0.09 0.01 88 1009.4
20260505091021 61 130 0.9 1.7 0.00 0.09 0.01 88 1009.0
20260505090023 61 0.0 0.0 0.00 0.09 0.01 86 1009.0
20260505085025 61 0.0 0.0 0.00 0.09 0.01 85 1009.1
20260505084022 61 0.0 0.0 0.00 0.09 0.01 85 1009.0
20260505083018 61 0.0 0.0 0.00 0.09 0.01 85 1008.8
20260505082032 61 0.0 0.0 0.00 0.09 0.01 85 1008.6
20260505081036 61 0.0 0.0 0.01 0.09 0.01 85 1008.6
20260505080018 61 315 0.0 0.9 0.01 0.09 0.01 84 1008.6
20260505075020 60 293 0.0 1.7 0.01 0.09 0.01 84 1008.4
20260505074022 61 256 1.7 2.6 0.01 0.09 0.01 83 1009.0
20260505073025 61 0.0 0.0 0.01 0.09 0.01 80 1009.1
20260505072027 62 0.0 0.0 0.01 0.09 0.01 79 1009.4
20260505071029 62 158 1.7 3.5 0.00 0.08 0.00 77 1009.6
20260505070031 63 135 4.3 5.2 0.00 0.08 0.00 74 1009.8
20260505065015 64 147 7.0 11.3 0.00 0.08 0.00 67 1010.3
20260505064017 67 117 7.0 10.4 0.00 0.08 0.00 61 1009.5
20260505063019 71 175 5.2 7.0 0.00 0.08 0.00 56 1008.0
20260505062042 71 107 1.7 3.5 0.00 0.08 0.00 56 1007.4
20260505061024 71 37 3.5 4.3 0.00 0.08 0.00 56 1007.2
20260505060020 71 31 3.5 6.1 0.00 0.08 0.00 56 1007.2
20260505055015 71 68 4.3 6.1 0.00 0.08 0.00 56 1007.0
20260505054030 71 2 5.2 8.7 0.00 0.08 0.00 56 1006.7
20260505053032 71 8 2.6 6.1 0.00 0.09 0.00 56 1006.7
20260505052016 71 37 3.5 7.0 0.00 0.09 0.00 56 1006.9
20260505051018 71 173 3.5 6.1 0.00 0.09 0.00 56 1006.7
20260505041032 70 9 2.6 4.3 0.00 0.13 0.09 59 1006.2
20260505040017 70 23 3.5 7.0 0.00 0.14 0.09 59 1006.4
20260505035019 71 14 2.6 3.5 0.00 0.14 0.09 59 1006.4
20260505034021 71 27 1.7 3.5 0.00 0.14 0.09 59 1006.7
20260505033023 71 45 2.6 5.2 0.00 0.14 0.09 59 1006.5
20260505032039 71 23 1.7 2.6 0.00 0.14 0.09 58 1006.7
20260505031015 71 29 2.6 3.5 0.00 0.14 0.09 58 1006.4
20260505030050 72 314 1.7 2.6 0.00 0.14 0.09 57 1006.4
20260505025052 72 67 2.6 3.5 0.00 0.14 0.09 57 1006.4
20260505024016 72 88 0.9 1.7 0.00 0.14 0.09 57 1006.2
20260505023018 72 5 1.7 2.6 0.00 0.14 0.09 56 1005.8
20260505022040 73 342 2.6 3.5 0.00 0.14 0.09 55 1005.7
20260505021022 73 358 2.6 4.3 0.00 0.14 0.09 55 1005.5
20260505020044 73 54 1.7 2.6 0.00 0.14 0.09 55 1005.4
20260505015046 73 68 2.6 3.5 0.00 0.14 0.09 55 1005.3
20260505014029 73 19 2.6 3.5 0.00 0.14 0.09 55 1005.2
20260505013030 73 10 1.7 2.6 0.00 0.14 0.09 55 1005.2
20260505012032 74 322 1.7 2.6 0.00 0.14 0.09 55 1005.2
20260505011017 74 68 0.9 1.7 0.00 0.14 0.09 56 1005.0
20260505010019 74 0.0 1.7 0.00 0.14 0.09 58 1005.0
20260505005021 74 0.0 0.0 0.00 0.14 0.09 59 1004.8
20260505004018 74 0.0 0.9 0.00 0.14 0.09 61 1004.7
20260505003046 74 0.0 0.9 0.00 0.14 0.09 61 1004.8
20260505002028 75 293 0.9 2.6 0.00 0.14 0.09 61 1004.8
20260505001030 75 0.0 0.0 0.00 0.14 0.09 59 1004.8
20260505000052 75 315 0.0 2.6 0.00 0.14 0.09 59 1004.8
20260504235016 75 332 0.9 1.7 0.00 0.14 0.09 59 1004.8
20260504234019 75 5 0.9 2.6 0.00 0.14 0.09 60 1004.8
20260504233102 75 334 0.9 1.7 0.00 0.14 0.09 59 1005.2
20260504232023 75 23 2.6 3.5 0.00 0.14 0.09 57 1004.5
20260504231025 75 339 5.2 7.0 0.00 0.14 0.09 56 1004.8
20260504230028 76 313 2.6 4.3 0.00 0.14 0.09 54 1005.2
20260504225030 77 24 1.7 3.5 0.00 0.14 0.09 52 1005.7
20260504224032 77 280 3.5 7.0 0.00 0.14 0.09 51 1005.8
20260504223016 77 31 1.7 2.6 0.00 0.14 0.09 51 1006.2
20260504222018 77 0 0.9 3.5 0.00 0.14 0.09 52 1006.2
20260504221020 77 334 1.7 4.3 0.00 0.14 0.09 51 1006.2
20260504220016 77 341 4.3 6.1 0.00 0.14 0.09 49 1006.2
20260504215025 79 9 4.3 6.1 0.00 0.14 0.09 48 1006.0
20260504214027 79 8 4.3 5.2 0.00 0.14 0.09 48 1006.0
20260504213029 79 305 4.3 6.1 0.00 0.14 0.09 48 1006.2
20260504212031 79 338 3.5 6.1 0.00 0.14 0.09 48 1006.3
20260504211033 79 318 7.8 9.6 0.00 0.14 0.09 47 1006.4
20260504210017 79 342 5.2 7.8 0.00 0.14 0.09 48 1006.4
20260504205019 79 315 6.1 7.0 0.00 0.14 0.09 47 1006.5
20260504204021 78 45 3.5 4.3 0.00 0.14 0.09 50 1006.7
20260504203023 76 329 5.2 10.4 0.00 0.14 0.09 53 1006.8
20260504202045 77 3 5.2 8.7 0.00 0.14 0.09 54 1007.0
20260504201047 77 355 3.5 6.1 0.00 0.14 0.09 54 1007.2
20260504200030 76 19 4.3 8.7 0.00 0.14 0.09 55 1007.2
20260504195026 76 344 4.3 7.0 0.00 0.14 0.09 55 1007.2
20260504194016 74 339 4.3 7.8 0.00 0.14 0.09 56 1006.8
20260504193019 71 10 5.2 8.7 0.00 0.14 0.09 61 1006.0
20260504192015 68 14 5.2 9.6 0.00 0.14 0.09 66 1006.0
20260504191017 67 347 6.1 8.7 0.00 0.14 0.09 67 1008.0
20260504190019 69 298 3.5 5.2 0.00 0.14 0.09 63 1008.0
20260504185042 69 284 4.3 6.1 0.00 0.14 0.09 64 1008.3
20260504184024 68 300 4.3 7.0 0.00 0.14 0.09 67 1008.3
20260504183026 67 272 4.3 7.0 0.05 0.14 0.09 70 1008.1
20260504182027 0 23 4.3 4.3 0.05 0.14 0.09 1008.6
20260504181030 64 18 1.7 3.5 0.07 0.14 0.09 77 1008.6
20260504180032 63 308 2.6 3.5 0.08 0.14 0.09 80 1008.6
20260504175016 62 31 1.7 2.6 0.08 0.14 0.09 80 1008.5
20260504174018 63 339 4.3 6.1 0.08 0.14 0.09 78 1008.5
20260504173020 0 0.0 0.0 0.03 0.09 0.04 1008.5
20260504172022 66 353 1.7 3.5 0.03 0.09 0.04 71 1008.8
20260504171024 66 290 2.6 2.6 0.01 0.07 0.02 69 1009.3
20260504151032 69 15 2.6 4.3 0.00 0.06 0.01 54 1010.3
20260504141016 70 28 3.5 5.2 0.00 0.06 0.01 55 1010.4